GMT,Max TemperatureF,Mean TemperatureF,Min TemperatureF,Max Dew PointF,MeanDew PointF,Min DewpointF,Max Humidity, Mean Humidity, Min Humidity, Max Sea Level PressureIn, Mean Sea Level PressureIn, Min Sea Level PressureIn, Max VisibilityMiles, Mean VisibilityMiles, Min VisibilityMiles, Max Wind SpeedMPH, Mean Wind SpeedMPH, Max Gust SpeedMPH,PrecipitationIn, CloudCover, Events, WindDirDegrees
2012-11-1,46,40,34,41,37,32,100,84,59,29.06,28.93,28.85,12,7,5,25,8,32,0.20,4,Rain,267
2012-11-2,48,42,37,41,38,34,100,83,65,29.27,29.18,29.06,12,6,5,22,12,,0.04,5,Rain,227
2012-11-3,47,42,37,39,36,34,93,82,59,29.30,29.24,29.15,12,6,4,22,12,26,0.12,4,Rain,199
2012-11-4,47,44,41,43,41,39,93,89,77,29.53,29.21,29.06,19,7,6,15,12,,0.02,6,Rain,15
2012-11-5,52,44,35,43,38,34,100,89,71,30.18,29.92,29.56,19,7,6,13,8,,0.01,2,,319
2012-11-6,51,45,39,48,43,37,100,84,71,30.33,30.26,30.18,12,6,6,20,10,,0.00,6,Rain,271
2012-11-7,52,50,48,50,46,43,100,86,72,30.32,30.22,30.15,19,6,3,22,12,,0.02,6,Rain,239
2012-11-8,51,48,46,48,46,43,100,92,80,30.19,30.07,29.86,16,7,3,13,10,,0.01,5,Rain,228
2012-11-9,51,46,42,48,44,39,100,89,71,29.86,29.60,29.44,16,6,2,17,10,31,0.08,5,Rain,213
2012-11-10,48,44,40,43,40,37,100,88,63,29.68,29.46,29.39,16,7,4,16,9,,0.16,3,Rain,253
2012-11-11,50,44,39,45,42,37,100,88,74,29.99,29.90,29.68,19,6,2,17,7,,0.01,4,Fog-Rain,233
2012-11-12,55,49,43,55,52,46,100,96,88,29.95,29.90,29.83,10,4,2,20,12,,0.08,6,Rain,199
2012-11-13,57,53,49,55,52,49,100,95,82,30.06,29.97,29.89,12,4,1,22,12,,0.43,6,Rain,166
2012-11-14,55,52,49,52,50,48,100,93,82,30.22,30.15,30.06,12,5,0,18,6,,0.00,6,Fog-Rain,143
2012-11-15,52,48,42,50,48,43,100,97,84,30.23,30.14,30.04,16,5,1,9,6,,0.00,6,Fog-Rain,180
2012-11-16,49,43,37,46,42,37,100,92,64,30.04,29.89,29.77,19,5,0,9,4,,0.08,5,Fog-Rain,213
2012-11-17,48,44,39,45,40,37,100,88,71,29.89,29.81,29.77,16,7,6,21,8,,0.08,3,Rain,245
2012-11-18,53,44,35,50,41,34,100,92,86,29.89,29.71,29.39,12,6,4,28,12,41,0.31,6,Rain,147
2012-11-19,54,51,48,52,49,46,94,89,77,29.47,29.36,29.27,12,6,3,25,19,,0.01,6,Rain,179
2012-11-20,53,47,41,52,44,37,100,85,55,29.59,29.40,29.27,19,6,4,38,14,52,0.01,5,Rain,175
2012-11-21,52,46,39,48,42,37,94,86,62,29.66,29.59,29.44,12,7,6,23,11,,0.08,3,Rain,153
2012-11-22,47,44,42,48,41,37,94,84,71,29.53,29.37,29.30,12,6,4,22,15,32,0.08,6,Rain,200
2012-11-23,47,41,35,41,38,34,93,85,74,29.92,29.74,29.56,16,7,5,16,9,,0.12,2,Rain,210
2012-11-24,39,36,32,38,34,30,100,94,87,29.94,29.81,29.65,12,6,4,10,6,,0.04,5,Rain,5
2012-11-25,43,36,29,41,36,28,100,93,87,29.67,29.54,29.44,12,6,4,16,8,,0.24,5,Fog-Rain,60
2012-11-26,47,42,37,41,37,34,93,80,66,30.01,29.85,29.62,12,6,6,22,15,34,0.02,4,Rain,330
2012-11-27,44,38,33,36,34,32,93,81,61,30.21,30.09,30.01,19,7,6,18,11,,0.00,1,,332
2012-11-28,44,38,31,37,34,30,100,89,76,30.25,30.21,30.18,19,7,6,7,4,,0.00,3,Fog,338
2012-11-29,39,34,29,39,35,28,100,97,91,30.19,29.99,29.86,9,3,0,12,5,,0.04,6,Fog-Rain,108
2012-11-30,47,42,37,45,42,37,100,97,90,30.06,29.88,29.80,11,5,0,12,7,,0.12,6,Fog-Rain,52